Starlink 1457

operational
NORAD ID: 45674 Int'l Des: 2020-035 Owner: SPXS Country: US Constellation: starlink
LEOCIRCULARSTARLINK_TYPE

关于 Starlink 1457

正在加载描述...

实时位置

正在加载3D地球...

即将过境

高度历史

Altitude vs Time

uPlot chart will show altitude changes over time

两行轨道根数

1 45674U 20035T 25258.91770902 .00004106 00000-0 29432-3 0 9997
2 45674 53.0531 131.2019 0001264 85.3038 274.8096 15.06410127292367
Epoch: Sep 15, 2025 • Age: 13 hours

当前状态

高度 557.9 km
速度 7.58 km/s
星下点 -32.72°S, 54.14°W
发射日期 Jun 4, 2020
运行时间 5.2 years
类型 internet

技术详情

分类 Payload
质量 260.00 kg
干质量 248.00 kg
总质量 260.00 kg
长度 0.20 m
直径 2.80 m
跨度 9.00 m
形状 Box + pan
制造商 SPXS
平台类型 Starlink
阶段状态 In Orbit
所有者/国家 SPXS/US

大型星座

Loading constellations...